Regional Weather Roundup
Issued by NWS

Home | Current Version | Previous Version | Text Only | Print | Product List | Glossary On
Versions: 1 2 3 4 5 6 7 8 9 10 11 12 13 14 15 16 17 18 19 20 21 22 23 24 25 26 27 28 29 30 31 32 33 34 35 36 37 38 39 40 41 42 43 44 45 46 47 48 49 50
000
ASUS43 KMPX 251810
RWRMN
WEATHER ROUNDUP FOR MINNESOTA
NATIONAL WEATHER SERVICE TWIN CITIES/CHANHASSEN MN
100 PM CDT SAT OCT 25 2014


NOTE: "FAIR" INDICATES FEW OR NO CLOUDS BELOW 12,000 FEET WITH NO
SIGNIFICANT WEATHER AND/OR OBSTRUCTIONS TO VISIBILITY. N/A MEANS
CURRENT SKY AND/OR WEATHER CONDITIONS ARE NOT AVAILABLE.

MNZ060>063-068>070-251900-
   Twin Cities Metro

CITY           SKY/WX    TMP DP  RH WIND       PRES   REMARKS
TWIN CITIES    PTSUNNY   58  30  34 NW18      30.05S
6HR MIN TEMP:  50; 6HR MAX TEMP:  60;

ST PAUL        MOSUNNY   59  32  36 W15G24    30.05S
CRYSTAL        MOSUNNY   61  31  32 W18G24    30.04S
BLAINE         MOSUNNY   63  30  29 W17G23    30.04S
LAKEVILLE      MOSUNNY   59  30  33 NW20      30.05F
EDEN PRAIRIE   MOSUNNY   61  32  33 NW14      30.05F
6HR MIN TEMP:  52; 6HR MAX TEMP:  61;

SOUTH ST PAUL  MOSUNNY   60  30  31 W13G21    30.04F
LAKE ELMO      FAIR      61  32  33 NW15G24   30.04S
$$
MNZ001>005-007-008-013>017-022>024-027-028-251900-
   Northwest Minnesota

CITY           SKY/WX    TMP DP  RH WIND       PRES   REMARKS
BEMIDJI        SUNNY     53  29  39 NW24G31   30.02S
HALLOCK        SUNNY     57  27  30 NW20G25   30.04S
ROSEAU         SUNNY     55  30  38 NW17G26   29.99S
WARROAD        SUNNY     54  32  43 W21G30    29.98S
THIEF RVR FALL SUNNY     54  30  40 NW21      30.05F
CROOKSTON      SUNNY     57  27  30 NW25G32   30.07F
FOSSTON        SUNNY     54  27  35 NW18G28   30.06F
DETROIT LAKES  SUNNY     54  30  40 NW16G22   30.09S
MOORHEAD       SUNNY     57  21  24 NW13G22   30.11F
PARK RAPIDS    SUNNY     55  26  32 NW18      30.04R
MAHNOMEN       FAIR      55  28  36 NW18G25   30.07S
$$
MNZ006-009>011-018-025>026-251900-
   North Central Minnesota

CITY           SKY/WX    TMP DP  RH WIND       PRES   REMARKS
BAUDETTE       SUNNY     52  27  38 NW20G32   29.95S
FLAG ISLAND    SUNNY     50  30  46 W32       29.91F
INTL FALLS     SUNNY     53  30  41 W17G33    29.90R
6HR MIN TEMP:  40; 6HR MAX TEMP:  53;

WASKISH        SUNNY     54  34  47 W16G23    29.98S
BIG FORK       SUNNY     54  28  37 W16G22    29.96S
LONGVILLE      SUNNY     55  28  35 W10G22    30.00S
GRAND RAPIDS   SUNNY     54  28  37 NW24G31   29.97S
CRANE LAKE     SUNNY     52  28  40 NW14G21   29.88F
ORR            SUNNY     54  27  35 W17G25    29.88R
COOK           SUNNY     54  30  40 W23G30    29.90S
WALKER         FAIR      53  27  36 NW16G24   30.02R
$$
MNZ012-019>021-037-251900-
   Northeast Minnesota

CITY           SKY/WX    TMP DP  RH WIND       PRES   REMARKS
DULUTH         SUNNY     56  30  37 W23G29    29.90F
6HR MIN TEMP:  46; 6HR MAX TEMP:  56;

ELY            SUNNY     52  28  40 W17G26    29.85S
HIBBING        SUNNY     56  29  35 NW18G26   29.92S
EVELETH        SUNNY     54  30  40 W21G29    29.92R
DULUTH HARBOR  SUNNY     57  34  41 W23G29    29.91F
TWO HARBORS    SUNNY     61  12  15 W16G29    29.86S
SILVER BAY     SUNNY     57  28  33 W12G26    29.82S
GRAND MARAIS     N/A     58  31  35 W13G29    29.74R
G MARAIS ARPRT SUNNY     50  27  40 W18G32    29.75S
$$
MNZ029>031-032-039>041-046>048-054>057-064-251900-
   West Central Minnesota

CITY           SKY/WX    TMP DP  RH WIND       PRES   REMARKS
FERGUS FALLS   SUNNY     57  25  28 N16       30.12S
WHEATON        SUNNY     57  28  33 NW14      30.14F
MORRIS         SUNNY     59  30  33 NW17      30.11S
ALEXANDRIA     SUNNY     56  28  34 NW17G23   30.11S
ELBOW LAKE     FAIR      56  30  37 NW16G23   30.11S
WADENA         SUNNY     54  28  37 NW18G28   30.06F
GLENWOOD       SUNNY     57  28  33 NW18G26   30.10S
APPLETON       SUNNY     63  28  27 NW13      30.13S
BENSON         SUNNY     61  30  31 N15G22    30.12S
ORTONVILLE     SUNNY     61  30  31 NW10      30.14S
MADISON        SUNNY     64  32  29 N12G17    30.13F
WILLMAR        FAIR      61  28  29 NW22      30.12F
$$
MNZ033>034-036-042>043-049>051-058-059-251900-
   Central Minnesota

CITY           SKY/WX    TMP DP  RH WIND       PRES   REMARKS
ST CLOUD       MOSUNNY   63  27  25 NW18G28   30.05S
6HR MIN TEMP:  49; 6HR MAX TEMP:  63;

SAUK CENTRE    FAIR      57  30  36 W16G25    30.09S
PAYNESVILLE    MOSUNNY   56  29  36 W17G24    30.09F
AITKIN         SUNNY     61  27  27 W7G17     29.98F
PINE RIVER     SUNNY     55  30  38 W12G21    30.04S
BRAINERD       SUNNY     56  28  34 NW14G21   30.02F
STAPLES        SUNNY     55  25  30 NW17G26   30.05S
LONG PRAIRIE   FAIR      55  27  33 W17G23    30.07S
LITTLE FALLS   SUNNY     57  25  28 NW14G24   30.05S
LITCHFIELD     MOSUNNY   61  30  31 NW18G25   30.09F
BUFFALO        MOSUNNY   59  30  33 W15G22    30.07F
MAPLE LAKE     MOSUNNY   59  35  39 W15       30.07F
$$
MNZ037-044-045-052-053-251900-
   East Central Minnesota

CITY           SKY/WX    TMP DP  RH WIND       PRES   REMARKS
PRINCETON      SUNNY     63  30  29 W17       30.04S
MORA           SUNNY     59  27  29 NW13G21   30.02S
CAMBRIDGE      SUNNY     63  39  42 W17       30.00F
RUSH CITY      SUNNY     61  29  29 NW14G23   30.01S
MOOSE LAKE     SUNNY     59  32  36 W13G24    29.95S
HINCKLEY       FAIR      59  32  36 W14G23    29.99F
CLOQUET        SUNNY     55  25  30 W15G26    29.93F
MCGREGOR       SUNNY     57  28  33 W13G22    29.98F
$$
MNZ071>073-080-081-089-090-097-098-251900-
   Southwest Minnesota

CITY           SKY/WX    TMP DP  RH WIND       PRES   REMARKS
MONTEVIDEO     SUNNY     63  34  34 N14       30.13F
GRANITE FALLS  SUNNY     61  34  36 NW10      30.15S
CANBY          SUNNY     62  32  33 NW13G18   30.15F
MARSHALL       SUNNY     63  30  29 N15       30.13F
REDWOOD FALLS  SUNNY     62  32  32 NW14G21   30.12S
OLIVIA         SUNNY     61  32  33 NW13G23   30.11F
PIPESTONE      SUNNY     63  28  27 N5        30.14S
WINDOM         SUNNY     63  28  27 NW14      30.13S
WORTHINGTON    SUNNY     63  30  29 N13       30.15S
JACKSON        SUNNY     64  28  25 NW9G17    30.13S
TRACY          SUNNY     63  33  31 N9        30.14S
SLAYTON        SUNNY     61  29  29 N9G16     30.14F
$$
MNZ065>067-074>077-082>085-091>093-251900-
   South Central Minnesota

CITY           SKY/WX    TMP DP  RH WIND       PRES   REMARKS
MANKATO        SUNNY     63  30  29 NW15G24   30.10S
NEW ULM        SUNNY     61  34  36 N17G24    30.10S
ST JAMES       SUNNY     64  27  24 NW12      30.12F
FAIRMONT       SUNNY     64  -6   6 NW13      30.11F
GLENCOE        SUNNY     63  33  33 W17       30.08F
FARIBAULT      SUNNY     63  28  27 NW14G21   30.08S
OWATONNA       SUNNY     63  27  25 NW14G24   30.08F
WASECA         SUNNY     61  25  25 NW12G21   30.11S
ALBERT LEA     SUNNY     64  30  27 NW12G18   30.08F
$$
MNZ078>079-086>088-094>096-251900-
   Southeast Minnesota

CITY           SKY/WX    TMP DP  RH WIND       PRES   REMARKS
ROCHESTER      SUNNY     62  31  31 NW15G24   30.06F
6HR MIN TEMP:  45; 6HR MAX TEMP:  62;

RED WING       MOSUNNY   63  28  27 NW13G25   30.02S
STANTON        MOSUNNY   62  29  29 NW20      30.05F
DODGE CENTER   SUNNY     61  30  31 NW17G24   30.06F
WINONA         MOSUNNY   63  34  34 NW15      30.02S
AUSTIN         SUNNY     63  32  31 NW13G22   30.07F
PRESTON        SUNNY     61  31  32 NW13G23   30.05F
$$
ABBREVIATIONS USED IN REMARKS
   TC - TEMPERATURES IN CELSIUS
  WCI - WIND CHILL INDEX
   HX - HEAT INDEX
  VSB - VISIBILITY
$$



USA.gov is the U.S. government's official web portal to all federal, state and local government web resources and services.